User: anonymous   Login
Location: Radomski Observatory
(40.2854°N, 79.5145°W)
Time: 06:58:34
(UTC-04:00)
Language:

Uosat F - Orbit

View from above orbital plane
View from above orbital plane
View from above satellite
View from above satellite

Ground track
Ground track

The orbit data is extracted from the following two-line orbital elements,

1 21575U 91050B   18175.09517978  .00000013  00000-0  18647-4 0  9997
2 21575  98.7284 204.8475 0006127 273.6049  86.4438 14.40848383414833
Epoch (UTC): 24 June 2018 02:17:03
Eccentricity: 0.0006127
inclination: 98.7284°
perigee height: 751 km
apogee height: 760 km
right ascension of ascending node: 204.8475°
argument of perigee: 273.6049°
revolutions per day: 14.40848383
mean anomaly at epoch: 86.4438°
orbit number at epoch: 41483

The dashed part of the orbit path shows where the satellite is in the earth's shadow,  

DLR